Weather History for Marathon, FL

Change the Weather History Date:

Tuesday, November 22, 2011

  Actual Average Record
Temperature  
Mean Temperature 80 °F 75 °F  
Max Temperature 83 °F 80 °F 84 °F (1997)
Min Temperature 76 °F 70 °F 53 °F (2006)
Degree Days  
Heating Degree Days 0 0  
Month to date heating degree days 0 0  
Since 1 July heating degree days 0 0  
Cooling Degree Days 15 10  
Month to date cooling degree days 271 248  
Year to date cooling degree days 5050 4687  
Growing Degree Days 30 (Base 50)    
Moisture  
Dew Point 68 °F    
Average Humidity 69    
Maximum Humidity 76    
Minimum Humidity 62    
Precipitation  
Precipitation 0.00 in 0.07 in 0.55 in (2013)
Month to date precipitation 0.30 2.22  
Year to date precipitation 35.81 43.55  
Snow  
Snow 0.00 in - - ()
Month to date snowfall 0.0  
Since 1 July snowfall 0.0  
Since 1 September snowfall 0.0  
Snow Depth 0.00 in    
Sea Level Pressure  
Sea Level Pressure 30.11 in    
Wind  
Wind Speed 8 mph (East)    
Max Wind Speed 13 mph    
Max Gust Speed 20 mph    
Visibility 10 miles    
Events      
T = Trace of Precipitation, MM = Missing Value Source: NWS Daily Summary

Daily Weather History Graph

Daily Weather History Graph

Search for Another Location

Airport:

Trip Planner

Search our weather history database for the weather conditions in past years. The results will help you decide how hot, cold, wet, or windy it might be!

Date:

Astronomy

Nov. 22, 2011 Rise Set
Actual Time 6:45 AM EST 5:35 PM EST
Civil Twilight 6:20 AM EST 5:59 PM EST
Nautical Twilight 5:52 AM EST 6:27 PM EST
Astronomical Twilight 5:25 AM EST 6:54 PM EST
Moon 3:47 AM EST (11/22) 3:23 PM EST (11/22)
Length of Visible Light 11h 38m
Length of Day
10h 50m
Waning Crescent, 9% of the Moon is Illuminated
Nov 22
Waning Crescent
Nov 25
New
Dec 2
First Quarter
Dec 10
Full
Dec 17
Last Quarter

Hourly Weather History & Observations

Time (EST) Temp. Heat Index Dew Point Humidity Pressure Visibility Wind Dir Wind Speed Gust Speed Precip Events Conditions
12:53 AM 78.1 °F - 69.1 °F 74% 30.12 in 10.0 mi East 9.2 mph - N/A   Partly Cloudy
2:53 AM 78.1 °F - 69.1 °F 74% 30.10 in 10.0 mi East 9.2 mph 17.3 mph N/A   Partly Cloudy
3:53 AM 77.0 °F - 68.0 °F 74% 30.10 in 10.0 mi East 10.4 mph 17.3 mph N/A   Scattered Clouds
4:53 AM 77.0 °F - 68.0 °F 74% 30.09 in 10.0 mi East 10.4 mph 17.3 mph N/A   Scattered Clouds
5:53 AM 77.0 °F - 66.9 °F 71% 30.10 in 10.0 mi East 8.1 mph - N/A   Partly Cloudy
6:53 AM 77.0 °F - 64.9 °F 66% 30.11 in 10.0 mi East 6.9 mph - N/A   Clear
7:53 AM 78.1 °F - 66.0 °F 66% 30.12 in 10.0 mi East 6.9 mph - N/A   Partly Cloudy
8:53 AM 79.0 °F - 66.9 °F 66% 30.13 in 10.0 mi ESE 9.2 mph - N/A   Partly Cloudy
9:53 AM 81.0 °F 83.8 °F 68.0 °F 65% 30.15 in 10.0 mi ESE 9.2 mph 16.1 mph N/A   Partly Cloudy
10:53 AM 81.0 °F 83.0 °F 66.0 °F 60% 30.14 in 10.0 mi East 9.2 mph - N/A   Scattered Clouds
11:53 AM 81.0 °F 83.0 °F 66.0 °F 60% 30.13 in 10.0 mi East 9.2 mph - N/A   Scattered Clouds
1:53 PM 82.9 °F - - N/A% 30.08 in 10.0 mi Variable 4.6 mph - N/A   Clear
2:53 PM 81.0 °F - - N/A% 30.07 in 10.0 mi East 6.9 mph - N/A   Partly Cloudy
3:53 PM 80.1 °F 82.3 °F 66.9 °F 64% 30.07 in 10.0 mi East 6.9 mph - N/A   Partly Cloudy
4:53 PM 79.0 °F - 68.0 °F 69% 30.09 in 10.0 mi ENE 8.1 mph - N/A   Scattered Clouds
5:53 PM 79.0 °F - 68.0 °F 69% 30.09 in 10.0 mi ENE 9.2 mph - N/A   Mostly Cloudy
6:53 PM 78.1 °F - 69.1 °F 74% 30.10 in 10.0 mi ENE 6.9 mph - N/A   Clear
8:53 PM 78.1 °F - 70.0 °F 76% 30.12 in 10.0 mi East 4.6 mph - N/A   Mostly Cloudy
9:53 PM 77.0 °F - 70.0 °F 79% 30.12 in 10.0 mi East 6.9 mph - N/A   Partly Cloudy
10:53 PM 77.0 °F - 70.0 °F 79% 30.12 in 10.0 mi East 6.9 mph - N/A   Partly Cloudy
11:53 PM 78.1 °F - 70.0 °F 76% 30.11 in 10.0 mi East 5.8 mph - N/A   Scattered Clouds